Location: Amon Carter Post Office
(32.8281°N, 97.0484°W)
Time: 11:25:22
(UTC+00:00)

Sich 1 - Pass Details

Date: 05 July 2022
Orbit: 593 x 623 km, 82.5° (Epoch: 09 August)

Event Time Altitude Azimuth Distance (km) Brightness Sun altitude
Exits shadow 09:16:51 26° 145° (SE) 1,183 4.3 -22.0°
Maximum altitude 09:18:43 42° 92° (E) 866 4.0 -21.8°
Drops below altitude 10° 09:22:46 10° 22° (NNE) 1,941 6.6 -21.2°
Sets 09:25:03 0° 15° (NNE) 2,843 7.5 -20.9°
